TimeAKST,TemperatureF,Dew PointF,Humidity,Sea Level PressureIn,VisibilityMPH,Wind Direction,Wind SpeedMPH,Gust SpeedMPH,PrecipitationIn,Events,Conditions,WindDirDegrees,DateUTC
12:53 AM,32.0,32.0,100,29.54,10.0,NE,9.2,-,0.01,,Overcast,50,2012-02-17 09:53:00
1:27 AM,32.0,32.0,100,29.54,10.0,ENE,9.2,-,0.00,,Mostly Cloudy,60,2012-02-17 10:27:00
1:53 AM,33.1,33.1,100,29.55,10.0,ENE,11.5,-,0.00,,Overcast,60,2012-02-17 10:53:00
2:31 AM,32.0,32.0,100,29.54,10.0,ENE,6.9,-,0.00,,Overcast,60,2012-02-17 11:31:00
2:43 AM,32.0,32.0,100,29.55,10.0,NNE,3.5,-,0.00,,Overcast,20,2012-02-17 11:43:00
3:53 AM,32.0,32.0,100,29.56,10.0,NE,3.5,-,N/A,,Partly Cloudy,50,2012-02-17 12:53:00
4:53 AM,30.0,30.0,100,29.57,10.0,NE,4.6,-,N/A,,Scattered Clouds,50,2012-02-17 13:53:00
5:53 AM,32.0,32.0,100,29.58,10.0,East,6.9,-,N/A,,Overcast,80,2012-02-17 14:53:00
6:26 AM,32.0,32.0,100,29.59,3.0,NNE,3.5,-,0.00,Snow,Light Snow,30,2012-02-17 15:26:00
6:34 AM,30.2,30.2,100,29.59,2.5,Calm,Calm,-,0.02,Snow,Light Snow,0,2012-02-17 15:34:00
6:41 AM,30.2,30.2,100,29.60,7.0,North,3.5,-,0.02,Snow,Light Snow,360,2012-02-17 15:41:00
6:53 AM,30.9,30.9,100,29.60,7.0,NNE,3.5,-,0.02,Snow,Light Snow,20,2012-02-17 15:53:00
7:53 AM,30.9,30.9,100,29.62,10.0,Calm,Calm,-,0.00,,Mostly Cloudy,0,2012-02-17 16:53:00
8:53 AM,30.9,30.9,100,29.65,10.0,Calm,Calm,-,N/A,,Overcast,0,2012-02-17 17:53:00
9:53 AM,30.9,30.9,100,29.67,10.0,SE,3.5,-,N/A,,Partly Cloudy,130,2012-02-17 18:53:00
10:30 AM,30.2,30.2,100,29.68,10.0,NE,3.5,-,N/A,,Overcast,40,2012-02-17 19:30:00
10:36 AM,30.2,30.2,100,29.68,10.0,NNE,5.8,-,N/A,,Overcast,30,2012-02-17 19:36:00
10:53 AM,32.0,32.0,100,29.69,10.0,NNE,3.5,-,N/A,,Overcast,20,2012-02-17 19:53:00
11:53 AM,32.0,32.0,100,29.70,10.0,Calm,Calm,-,N/A,,Overcast,0,2012-02-17 20:53:00
12:53 PM,35.1,32.0,89,29.72,10.0,Calm,Calm,-,N/A,,Partly Cloudy,0,2012-02-17 21:53:00
1:53 PM,33.1,32.0,96,29.73,10.0,East,4.6,-,N/A,,Scattered Clouds,80,2012-02-17 22:53:00
2:53 PM,33.1,32.0,96,29.73,10.0,ESE,3.5,-,N/A,,Clear,110,2012-02-17 23:53:00
3:53 PM,37.0,28.9,73,29.73,10.0,Calm,Calm,-,N/A,,Scattered Clouds,0,2012-02-18 00:53:00
4:53 PM,35.1,28.0,76,29.73,10.0,Calm,Calm,-,N/A,,Partly Cloudy,0,2012-02-18 01:53:00
6:53 PM,28.0,26.1,92,29.73,10.0,Calm,Calm,-,N/A,,Partly Cloudy,0,2012-02-18 03:53:00
7:53 PM,28.9,27.0,92,29.74,10.0,Calm,Calm,-,N/A,,Partly Cloudy,0,2012-02-18 04:53:00
8:53 PM,27.0,27.0,100,29.74,10.0,Calm,Calm,-,N/A,,Partly Cloudy,0,2012-02-18 05:53:00
9:53 PM,25.0,24.1,96,29.73,10.0,ESE,4.6,-,N/A,,Clear,110,2012-02-18 06:53:00
10:53 PM,24.1,23.0,96,29.72,10.0,ENE,6.9,-,N/A,,Clear,60,2012-02-18 07:53:00
11:53 PM,25.0,21.9,88,29.71,10.0,ENE,6.9,-,N/A,,Clear,70,2012-02-18 08:53:00